Tracking 30743 objects as of 22-Jun-2025
HD Live streaming from Space Station
objects crossing your sky now

EUTE KONNECT VHTS

Track EUTE KONNECT VHTS now!
EUTE KONNECT VHTS is classified as:


NORAD ID: 53765
Int'l Code: 2022-110A
Perigee: 35,783.8 km
Apogee: 35,804.1 km
Inclination: 0.1 °
Period: 1,436.1 minutes
Semi major axis: 42164 km
RCS: Unknown
Launch date: September 7, 2022
Source: European Telecommunications Satellite Organization (EUTE)
Launch site: FRENCH GUIANA (FRGUI)
Your satellite tracking list
Your tracking list is empty




NASA's NSSDC Master Catalog

Two Line Element Set (TLE):
1 53765U 22110A   25173.35927851  .00000025  00000-0  00000-0 0  9997
2 53765   0.0559  97.7210 0002398 340.6346 324.4661  1.00271037  3214
Source of the keplerian elements: AFSPC